FW2996 Weather Reports


Display with metric or nautical units.
time (UTC)temp
F
wind
direction
speed
MPH
gust
MPH
rain 1hr
in
rain 24hr
in
rain mn
in
humidity
%
barometer
mb
20260904024046 82 140 6.0 8.0 0.00 0.00 0.00 76 1054.2
20260904023542 82 145 5.0 9.0 0.00 0.00 0.00 76 1054.1
20260904023038 82 134 3.0 10.0 0.00 0.00 0.00 76 1053.8
20260904022532 82 137 3.0 8.0 0.00 0.00 0.00 76 1053.9
20260904022029 82 147 6.0 10.0 0.00 0.00 0.00 76 1053.9
20260904021520 82 135 4.0 7.0 0.00 0.00 0.00 76 1053.9
20260904021014 82 114 5.0 9.0 0.00 0.00 0.00 75 1053.8
20260904020509 82 128 6.0 8.0 0.00 0.00 0.00 75 1053.8
20260904020008 82 135 6.0 7.0 0.00 0.00 0.00 74 1053.5
20260904015503 82 144 4.0 10.0 0.00 0.00 0.00 74 1053.5
20260904015001 82 115 6.0 11.0 0.00 0.00 0.00 74 1053.5
20260904014456 83 138 3.0 10.0 0.00 0.00 0.00 73 1053.4
20260904013952 83 134 5.0 10.0 0.00 0.00 0.00 73 1053.4
20260904013448 83 166 7.0 7.0 0.00 0.00 0.00 72 1053.3
20260904012945 83 182 6.0 10.0 0.00 0.00 0.00 72 1053.4
20260904012444 83 174 2.0 10.0 0.00 0.00 0.00 71 1053.3
20260904011939 84 119 8.0 13.0 0.00 0.00 0.00 71 1053.3
20260904011433 84 121 7.0 15.0 0.00 0.00 0.00 70 1053.1
20260904010929 84 177 7.0 9.0 0.00 0.00 0.00 69 1053.2
20260904010425 84 183 7.0 11.0 0.00 0.00 0.00 68 1053.0
20260904005919 85 156 10.0 14.0 0.00 0.00 0.00 68 1053.0
20260904005416 85 133 6.0 15.0 0.00 0.00 0.00 67 1053.1
20260904004915 85 116 9.0 13.0 0.00 0.00 0.00 67 1053.1
20260904004413 85 123 6.0 10.0 0.00 0.00 0.00 67 1053.2
20260904003912 85 129 9.0 11.0 0.00 0.00 0.00 67 1053.1
20260904003408 86 117 8.0 13.0 0.00 0.00 0.00 66 1053.3
20260904002903 86 127 7.0 13.0 0.00 0.00 0.00 66 1053.0
20260904002400 86 137 9.0 14.0 0.00 0.00 0.00 65 1053.0
20260904001858 86 115 6.0 15.0 0.00 0.00 0.00 65 1053.2
20260904001354 86 124 8.0 10.0 0.00 0.00 0.00 66 1053.1
20260904000849 86 118 8.0 10.0 0.00 0.00 0.00 66 1053.0
20260904000348 87 131 7.0 16.0 0.00 0.00 0.00 66 1053.1
20260903235848 87 154 4.0 10.0 0.00 0.00 0.00 65 1053.0
20260903235344 87 132 12.0 18.0 0.00 0.00 0.00 64 1053.0
20260903234843 88 143 11.0 13.0 0.00 0.00 0.00 65 1052.8
20260903234340 88 117 10.0 15.0 0.00 0.00 0.00 64 1052.7
20260903233836 88 106 6.0 16.0 0.00 0.00 0.00 65 1052.7
20260903233332 88 104 15.0 21.0 0.00 0.00 0.00 65 1052.6
20260903232831 89 118 14.0 19.0 0.00 0.00 0.00 62 1052.6
20260903232327 89 130 13.0 17.0 0.00 0.00 0.00 60 1052.8
20260903231826 90 127 11.0 22.0 0.00 0.00 0.00 59 1052.4
20260903231321 92 119 12.0 22.0 0.00 0.00 0.00 54 1052.4
20260903230817 92 143 7.0 15.0 0.00 0.00 0.00 52 1052.3
20260903230312 93 121 13.0 22.0 0.00 0.00 0.00 51 1052.3
20260903225808 93 147 14.0 16.0 0.00 0.00 0.00 51 1052.4
20260903225306 93 134 8.0 16.0 0.00 0.00 0.00 52 1052.2
20260903224800 93 178 10.0 18.0 0.00 0.00 0.00 52 1052.2
20260903224256 92 141 8.0 18.0 0.00 0.00 0.00 52 1052.0
20260903223751 93 112 15.0 19.0 0.00 0.00 0.00 52 1052.1
20260903223249 94 138 13.0 22.0 0.00 0.00 0.00 51 1052.0
20260903222745 97 126 9.0 21.0 0.00 0.00 0.00 47 1051.9
20260903222243 97 185 5.0 11.0 0.00 0.00 0.00 47 1051.9
20260903221739 97 133 8.0 14.0 0.00 0.00 0.00 46 1051.7
20260903221237 96 132 8.0 16.0 0.00 0.00 0.00 47 1051.9
20260903220736 98 147 7.0 9.0 0.00 0.00 0.00 45 1051.7
20260903220231 96 165 3.0 8.0 0.00 0.00 0.00 46 1051.8
20260903215724 96 157 10.0 15.0 0.00 0.00 0.00 46 1052.0
20260903215220 96 119 3.0 7.0 0.00 0.00 0.00 45 1051.9
20260903214717 96 115 6.0 11.0 0.00 0.00 0.00 46 1052.0
20260903214214 96 121 2.0 11.0 0.00 0.00 0.00 46 1052.1
20260903213708 96 115 3.0 10.0 0.00 0.00 0.00 45 1052.1
20260903213204 97 148 10.0 13.0 0.00 0.00 0.00 45 1052.1
20260903212700 97 131 5.0 10.0 0.00 0.00 0.00 45 1052.2
20260903212156 96 154 7.0 11.0 0.00 0.00 0.00 47 1052.3
20260903211655 96 140 6.0 10.0 0.00 0.00 0.00 46 1052.1
20260903211152 96 115 4.0 7.0 0.00 0.00 0.00 47 1052.4
20260903210648 96 132 9.0 15.0 0.00 0.00 0.00 48 1052.1
20260903210143 95 137 3.0 7.0 0.00 0.00 0.00 48 1052.3
20260903205643 97 141 13.0 16.0 0.00 0.00 0.00 46 1052.3
20260903205142 97 124 4.0 9.0 0.00 0.00 0.00 45 1052.3
20260903204638 97 153 1.0 8.0 0.00 0.00 0.00 44 1052.2
20260903204134 96 137 4.0 6.0 0.00 0.00 0.00 46 1052.6
20260903203630 96 197 2.0 6.0 0.00 0.00 0.00 46 1052.7
20260903203130 97 125 6.0 8.0 0.00 0.00 0.00 46 1052.9
20260903202624 96 192 3.0 4.0 0.00 0.00 0.00 47 1052.7
20260903202120 96 129 6.0 10.0 0.00 0.00 0.00 48 1052.9
20260903201614 97 176 6.0 9.0 0.00 0.00 0.00 47 1052.9
20260903201114 97 105 3.0 7.0 0.00 0.00 0.00 46 1052.9
20260903200609 97 179 5.0 7.0 0.00 0.00 0.00 47 1052.9
20260903200104 99 155 8.0 14.0 0.00 0.00 0.00 46 1053.0
20260903195600 98 246 5.0 9.0 0.00 0.00 0.00 45 1052.9
20260903195056 97 162 7.0 14.0 0.00 0.00 0.00 49 1053.1
20260903194551 98 66 2.0 7.0 0.00 0.00 0.00 46 1052.9
20260903194045 96 145 1.0 4.0 0.00 0.00 0.00 47 1053.1
20260903193542 98 103 3.0 4.0 0.00 0.00 0.00 46 1053.0
20260903193032 97 116 9.0 13.0 0.00 0.00 0.00 48 1053.4
20260903192528 95 137 2.0 3.0 0.00 0.00 0.00 47 1053.3
20260903192022 97 122 8.0 13.0 0.00 0.00 0.00 46 1053.3
20260903191519 98 208 4.0 7.0 0.00 0.00 0.00 45 1053.7
20260903191019 98 227 2.0 2.0 0.00 0.00 0.00 43 1053.5
20260903190513 98 236 6.0 9.0 0.00 0.00 0.00 44 1053.9
20260903190013 97 252 4.0 7.0 0.00 0.00 0.00 44 1053.8
20260903185509 98 86 4.0 6.0 0.00 0.00 0.00 44 1053.9
20260903185009 98 216 5.0 8.0 0.00 0.00 0.00 44 1054.1
20260903184500 98 255 2.0 8.0 0.00 0.00 0.00 44 1054.3
20260903183959 97 250 5.0 9.0 0.00 0.00 0.00 43 1054.3
20260903183453 97 112 4.0 7.0 0.00 0.00 0.00 46 1054.2
20260903182953 96 164 6.0 10.0 0.00 0.00 0.00 44 1054.3
20260903182452 96 168 4.0 9.0 0.00 0.00 0.00 46 1054.5
20260903181948 96 186 4.0 9.0 0.00 0.00 0.00 47 1054.7
20260903181441 98 156 6.0 8.0 0.00 0.00 0.00 46 1054.5
20260903180936 96 141 3.0 7.0 0.00 0.00 0.00 48 1054.7
20260903180431 95 192 7.0 13.0 0.00 0.00 0.00 47 1054.8
20260903175931 94 133 1.0 10.0 0.00 0.00 0.00 50 1054.7
20260903175425 96 234 5.0 11.0 0.00 0.00 0.00 45 1054.7
20260903174919 94 148 4.0 8.0 0.00 0.00 0.00 46 1054.7
20260903174415 95 258 4.0 7.0 0.00 0.00 0.00 45 1055.0
20260903173914 95 216 3.0 6.0 0.00 0.00 0.00 48 1055.0
20260903173409 95 170 9.0 11.0 0.00 0.00 0.00 50 1055.0
20260903172905 94 182 1.0 7.0 0.00 0.00 0.00 49 1055.0
20260903172405 93 216 6.0 10.0 0.00 0.00 0.00 50 1055.1
20260903171900 93 217 5.0 14.0 0.00 0.00 0.00 52 1055.2
20260903171355 93 236 4.0 10.0 0.00 0.00 0.00 53 1055.2
20260903170855 93 169 3.0 11.0 0.00 0.00 0.00 52 1055.4
20260903170350 93 162 4.0 8.0 0.00 0.00 0.00 54 1055.5
20260903165848 93 157 4.0 8.0 0.00 0.00 0.00 54 1055.4
20260903165343 92 183 7.0 10.0 0.00 0.00 0.00 56 1055.4
20260903164837 92 188 2.0 4.0 0.00 0.00 0.00 56 1055.4
20260903164333 91 195 4.0 13.0 0.00 0.00 0.00 57 1055.4
20260903163832 92 263 5.0 9.0 0.00 0.00 0.00 56 1055.5
20260903163329 91 164 5.0 10.0 0.00 0.00 0.00 57 1055.5
20260903162825 90 195 5.0 9.0 0.00 0.00 0.00 58 1055.7
20260903162321 90 160 4.0 13.0 0.00 0.00 0.00 56 1055.7
20260903161817 90 243 9.0 15.0 0.00 0.00 0.00 58 1055.5
20260903161312 92 238 9.0 14.0 0.00 0.00 0.00 56 1055.5
20260903160807 90 162 1.0 6.0 0.00 0.00 0.00 60 1055.5
20260903160301 89 196 4.0 9.0 0.00 0.00 0.00 61 1055.5
20260903155758 89 201 7.0 9.0 0.00 0.00 0.00 62 1055.6
20260903155254 89 202 3.0 8.0 0.00 0.00 0.00 62 1055.5
20260903154749 88 165 2.0 13.0 0.00 0.00 0.00 64 1055.5
20260903154245 88 246 2.0 7.0 0.00 0.00 0.00 65 1055.6
20260903153741 88 203 6.0 8.0 0.00 0.00 0.00 66 1055.6
20260903153236 87 208 8.0 10.0 0.00 0.00 0.00 67 1055.6
20260903152732 86 273 6.0 10.0 0.00 0.00 0.00 69 1055.6
20260903152228 86 215 4.0 13.0 0.00 0.00 0.00 69 1055.5
20260903151728 86 262 7.0 11.0 0.00 0.00 0.00 68 1055.5
20260903151224 86 252 3.0 16.0 0.00 0.00 0.00 70 1055.6
20260903150718 87 210 3.0 10.0 0.00 0.00 0.00 69 1055.6
20260903150213 86 119 3.0 4.0 0.00 0.00 0.00 71 1055.4
20260903145708 85 213 2.0 17.0 0.00 0.00 0.00 72 1055.3
20260903145203 84 275 5.0 8.0 0.00 0.00 0.00 75 1055.4
20260903144702 85 228 7.0 11.0 0.00 0.00 0.00 74 1055.7
20260903144158 84 233 5.0 6.0 0.00 0.00 0.00 75 1055.5
20260903143654 84 242 7.0 8.0 0.00 0.00 0.00 76 1055.6
20260903143149 84 157 3.0 11.0 0.00 0.00 0.00 77 1055.4
20260903142645 83 200 3.0 8.0 0.00 0.00 0.00 77 1055.6
20260903142142 83 281 2.0 9.0 0.00 0.00 0.00 79 1055.6
20260903141642 82 238 4.0 9.0 0.00 0.00 0.00 80 1055.6
20260903141136 82 244 6.0 13.0 0.00 0.00 0.00 82 1055.6
20260903140633 82 170 4.0 10.0 0.00 0.00 0.00 82 1055.5
20260903140128 82 195 3.0 9.0 0.00 0.00 0.00 82 1055.6
20260903135624 82 233 6.0 10.0 0.00 0.00 0.00 82 1055.4
20260903135124 82 203 6.0 11.0 0.00 0.00 0.00 83 1055.6
20260903134623 81 226 6.0 9.0 0.00 0.00 0.00 83 1055.4
20260903134119 81 221 3.0 11.0 0.00 0.00 0.00 84 1055.6
20260903133616 81 239 9.0 14.0 0.00 0.00 0.00 84 1055.8
20260903133112 81 189 4.0 13.0 0.00 0.00 0.00 84 1055.7
20260903132607 81 192 8.0 15.0 0.00 0.00 0.00 84 1055.5
20260903132107 81 192 1.0 8.0 0.00 0.00 0.00 85 1055.6
20260903131602 80 116 1.0 6.0 0.00 0.00 0.00 86 1055.6
20260903131055 80 219 1.0 7.0 0.00 0.00 0.00 87 1055.5
20260903130550 80 198 6.0 7.0 0.00 0.00 0.00 87 1055.6
20260903130045 80 182 3.0 7.0 0.00 0.00 0.00 87 1055.5
20260903125543 79 201 4.0 10.0 0.00 0.00 0.00 88 1055.4
20260903125038 79 231 2.0 11.0 0.00 0.00 0.00 88 1055.2
20260903124532 79 231 3.0 8.0 0.00 0.00 0.00 88 1055.4
20260903124027 79 193 4.0 8.0 0.00 0.00 0.00 89 1055.2
20260903123526 79 184 4.0 6.0 0.00 0.00 0.00 89 1055.3
20260903123026 79 177 4.0 7.0 0.00 0.00 0.00 89 1055.3
20260903122525 79 225 4.0 7.0 0.00 0.00 0.00 89 1055.2
20260903122024 79 199 6.0 9.0 0.00 0.00 0.00 89 1055.2
20260903121519 79 212 5.0 11.0 0.00 0.00 0.00 89 1055.3
20260903121015 79 205 3.0 4.0 0.00 0.00 0.00 89 1055.1
20260903120514 79 190 8.0 10.0 0.00 0.00 0.00 89 1055.1
20260903120009 79 187 4.0 9.0 0.00 0.00 0.00 89 1055.1
20260903115508 79 189 2.0 7.0 0.00 0.00 0.00 89 1055.0
20260903115008 79 188 8.0 11.0 0.00 0.00 0.00 89 1054.7
20260903114503 79 196 4.0 8.0 0.00 0.00 0.00 89 1055.0
20260903113958 79 186 4.0 7.0 0.00 0.00 0.00 89 1055.1
20260903113454 79 218 4.0 10.0 0.00 0.00 0.00 89 1054.9
20260903112950 79 217 4.0 8.0 0.00 0.00 0.00 89 1054.8
20260903112446 79 194 3.0 4.0 0.00 0.00 0.00 89 1054.9
20260903111945 79 203 2.0 4.0 0.00 0.00 0.00 90 1054.7
20260903111445 79 182 4.0 9.0 0.00 0.00 0.00 90 1054.9
20260903110941 79 222 3.0 11.0 0.00 0.00 0.00 90 1054.8
20260903110437 79 221 4.0 8.0 0.00 0.00 0.00 90 1054.8
20260903105931 78 182 6.0 9.0 0.00 0.00 0.00 90 1054.8
20260903105427 78 212 4.0 8.0 0.00 0.00 0.00 91 1054.8
20260903104926 78 195 2.0 7.0 0.00 0.00 0.00 91 1054.6
20260903104425 78 209 3.0 10.0 0.00 0.00 0.00 91 1054.7
20260903103923 78 193 3.0 4.0 0.00 0.00 0.00 92 1054.7
20260903103418 78 199 4.0 8.0 0.00 0.00 0.00 92 1054.8
20260903102913 78 172 4.0 8.0 0.00 0.00 0.00 92 1054.6
20260903102408 78 192 2.0 8.0 0.00 0.00 0.00 92 1054.9
20260903101908 78 182 4.0 7.0 0.00 0.00 0.00 92 1054.7
20260903101403 78 197 4.0 9.0 0.00 0.00 0.00 92 1054.9
20260903100858 78 161 2.0 8.0 0.00 0.00 0.00 92 1054.7
20260903100353 78 209 3.0 9.0 0.00 0.00 0.00 92 1054.9
20260903095844 78 200 3.0 6.0 0.00 0.00 0.00 92 1054.7
20260903095338 78 176 4.0 8.0 0.00 0.00 0.00 92 1054.9
20260903094833 78 175 1.0 4.0 0.00 0.00 0.00 92 1054.8
20260903094328 78 196 2.0 7.0 0.00 0.00 0.00 92 1054.8
20260903093824 78 156 2.0 6.0 0.00 0.00 0.00 92 1054.8
20260903093319 78 194 2.0 4.0 0.00 0.00 0.00 92 1054.9
20260903092820 78 175 2.0 6.0 0.00 0.00 0.00 92 1054.9
20260903092314 78 210 5.0 8.0 0.00 0.00 0.00 91 1054.8
20260903091813 78 186 2.0 6.0 0.00 0.00 0.00 91 1054.9
20260903091307 78 179 5.0 9.0 0.00 0.00 0.00 91 1054.9
20260903090803 78 174 6.0 8.0 0.00 0.00 0.00 91 1054.9
20260903090302 78 192 2.0 6.0 0.00 0.00 0.00 91 1055.1
20260903085801 78 157 5.0 7.0 0.00 0.00 0.00 91 1054.8
20260903085255 78 166 4.0 7.0 0.00 0.00 0.00 91 1055.0
20260903084754 78 193 3.0 4.0 0.00 0.00 0.00 91 1054.9
20260903084248 78 191 2.0 8.0 0.00 0.00 0.00 90 1055.0
20260903083744 78 177 2.0 10.0 0.00 0.00 0.00 90 1055.0
20260903083244 78 220 3.0 7.0 0.00 0.00 0.00 90 1055.1
20260903082743 78 191 2.0 4.0 0.00 0.00 0.00 90 1054.9
20260903082239 78 159 2.0 7.0 0.00 0.00 0.00 89 1055.0
20260903081734 78 105 2.0 7.0 0.00 0.00 0.00 89 1055.0
20260903081230 78 197 2.0 9.0 0.00 0.00 0.00 89 1055.0
20260903080725 78 188 4.0 7.0 0.00 0.00 0.00 89 1055.0
20260903080223 78 187 2.0 6.0 0.00 0.00 0.00 88 1055.0
20260903075723 78 228 2.0 6.0 0.00 0.00 0.00 88 1055.1
20260903075218 79 168 4.0 9.0 0.00 0.00 0.00 88 1055.1
20260903074716 79 186 2.0 9.0 0.00 0.00 0.00 87 1055.3
20260903074211 79 139 3.0 7.0 0.00 0.00 0.00 87 1055.1
20260903073706 79 118 1.0 9.0 0.00 0.00 0.00 87 1055.1
20260903073201 79 194 4.0 7.0 0.00 0.00 0.00 86 1055.1
20260903072657 79 176 2.0 7.0 0.00 0.00 0.00 86 1055.3
20260903072154 79 166 5.0 7.0 0.00 0.00 0.00 86 1055.2
20260903071650 79 185 5.0 7.0 0.00 0.00 0.00 85 1055.1
20260903071146 79 191 4.0 8.0 0.00 0.00 0.00 84 1055.1
20260903070645 79 178 4.0 9.0 0.00 0.00 0.00 84 1055.3
20260903070141 80 187 6.0 8.0 0.00 0.00 0.00 83 1055.3
20260903065641 80 194 6.0 10.0 0.00 0.00 0.00 83 1055.3
20260903065136 80 129 3.0 7.0 0.00 0.00 0.00 82 1055.4
20260903064629 80 141 5.0 7.0 0.00 0.00 0.00 81 1055.3
20260903064125 80 147 3.0 10.0 0.00 0.00 0.00 80 1055.3
20260903063620 80 198 4.0 8.0 0.00 0.00 0.00 79 1055.2
20260903063115 80 195 4.0 9.0 0.00 0.00 0.00 79 1055.4
20260903062611 81 187 3.0 10.0 0.00 0.00 0.00 78 1055.4
20260903062106 81 99 4.0 7.0 0.00 0.00 0.00 77 1055.4
20260903061607 81 158 2.0 6.0 0.00 0.00 0.00 76 1055.6
20260903061106 81 197 4.0 7.0 0.00 0.00 0.00 76 1055.4
20260903060606 81 208 6.0 10.0 0.00 0.00 0.00 75 1055.7
20260903055559 82 166 10.0 17.0 0.00 0.00 0.00 74 1055.3
20260903055058 82 176 5.0 7.0 0.00 0.00 0.00 73 1055.5
20260903054553 82 164 3.0 7.0 0.00 0.00 0.00 72 1055.3
20260903054049 82 143 2.0 10.0 0.00 0.00 0.00 72 1055.5
20260903053544 82 183 5.0 10.0 0.00 0.00 0.00 71 1055.2
20260903053040 82 185 8.0 11.0 0.00 0.00 0.00 71 1055.5
20260903052536 82 142 7.0 11.0 0.00 0.00 0.00 71 1055.4
20260903052031 83 154 4.0 10.0 0.00 0.00 0.00 70 1055.4
20260903051531 83 149 7.0 13.0 0.00 0.00 0.00 69 1055.4
20260903051027 83 132 5.0 8.0 0.00 0.00 0.00 69 1055.2
20260903050525 83 112 6.0 14.0 0.00 0.00 0.00 68 1055.2
20260903050021 83 146 5.0 11.0 0.00 0.01 0.01 68 1055.2
20260903045521 83 133 6.0 8.0 0.00 0.01 0.01 68 1055.0
20260903045017 83 118 5.0 9.0 0.00 0.01 0.01 68 1055.1
20260903044513 83 128 4.0 8.0 0.00 0.01 0.01 68 1055.0
20260903044008 83 146 2.0 9.0 0.00 0.01 0.01 68 1055.1
20260903043504 83 123 3.0 7.0 0.00 0.01 0.01 68 1055.2
20260903043003 84 133 5.0 8.0 0.00 0.01 0.01 67 1055.1
20260903042458 84 142 3.0 7.0 0.00 0.01 0.01 67 1055.2
20260903041954 84 128 5.0 7.0 0.00 0.01 0.01 66 1054.9
20260903041450 84 129 6.0 10.0 0.00 0.01 0.01 66 1055.0
20260903040946 84 141 4.0 7.0 0.00 0.01 0.01 66 1054.9
20260903040444 85 141 5.0 10.0 0.00 0.01 0.01 65 1055.0
20260903035941 85 144 6.0 8.0 0.00 0.01 0.01 64 1054.9
20260903035436 84 148 6.0 10.0 0.00 0.01 0.01 64 1054.9
20260903034931 84 160 6.0 9.0 0.00 0.01 0.01 63 1055.0
20260903034426 83 118 4.0 10.0 0.00 0.01 0.01 64 1055.1
20260903033922 83 128 4.0 7.0 0.00 0.01 0.01 66 1055.1
20260903033417 83 126 3.0 4.0 0.00 0.01 0.01 67 1055.0
20260903032912 84 125 3.0 3.0 0.00 0.01 0.01 63 1054.7
20260903032408 84 119 1.0 2.0 0.00 0.01 0.01 63 1054.6
20260903031907 84 119 0.0 0.0 0.00 0.01 0.01 64 1054.5
20260903031407 84 119 0.0 2.0 0.00 0.01 0.01 63 1054.5
20260903030902 84 119 2.0 2.0 0.00 0.01 0.01 63 1054.5
20260903030358 84 119 1.0 2.0 0.00 0.01 0.01 63 1054.4
20260903025854 84 119 1.0 1.0 0.00 0.01 0.01 63 1054.4
20260903025349 84 119 0.0 1.0 0.00 0.01 0.01 63 1054.1
20260903024844 84 119 1.0 2.0 0.00 0.01 0.01 62 1054.4
20260903024343 84 112 1.0 1.0 0.00 0.01 0.01 63 1054.2